Location: Étavigny
(49.1201°N, 2.9800°E)
Time: 17:49:57
(UTC+00:00)

CORIOLIS - Pass Details

Date: 28 January 2023
Orbit: 817 x 838 km, 98.7° (Epoch: 26 March)

Event Time Altitude Azimuth Distance (km) Brightness Sun altitude
Rises 16:59:34 0° 160° (SSE) 3,376 7.4 -4.0°
Reaches altitude 10° 17:01:55 10° 160° (SSE) 2,444 6.7 -4.4°
Maximum altitude 17:07:21 82° 73° (ENE) 848 4.2 -5.2°
Drops below altitude 10° 17:12:47 10° 347° (NNW) 2,450 6.5 -6.0°
Sets 17:15:09 0° 346° (NNW) 3,385 7.3 -6.4°
